Location: Mentone
(34.5413°N, 85.5351°W)
Time: 21:00:54
(UTC-05:00)

A-11 Canister half - Visible Passes

Search period start: 28 May 2017 00:00
Search period end: 07 June 2017 00:00
Orbit: 1525 x 1684 km, 47.3° (Epoch: 27 May)

Date Brightness Start Highest point End Pass type
(mag) Time Alt. Az. Time Alt. Az. Time Alt. Az.
28 May 8.9 00:29:06 10° NW 00:38:50 82° SW 00:39:53 74° SSE visible
28 May 10.5 02:35:45 10° WNW 02:38:07 16° W 02:38:07 16° W visible
28 May 9.8 22:02:18 10° NW 22:11:21 45° NNE 22:20:25 11° E visible
29 May 8.9 00:07:30 10° NW 00:17:14 86° SW 00:18:39 70° SE visible
29 May 10.4 02:13:57 10° WNW 02:16:53 18° W 02:16:53 18° W visible
29 May 9.9 21:40:41 10° NW 21:49:40 44° NNE 21:58:55 10° E visible
29 May 8.9 23:45:55 10° NW 23:55:38 89° SSW 23:57:32 64° SE visible
30 May 10.3 01:52:12 10° WNW 01:55:46 20° W 01:55:46 20° W visible
30 May 9.9 21:19:04 10° NW 21:27:59 43° NNE 21:37:11 10° E visible
30 May 8.9 23:24:19 10° NW 23:34:00 88° NE 23:36:30 57° ESE visible
31 May 10.2 01:30:26 10° WNW 01:34:45 23° W 01:34:45 23° W visible
31 May 9.9 20:57:26 10° NW 21:06:19 42° NNE 21:15:25 10° E visible
31 May 9.0 23:02:44 10° NW 23:12:23 85° NE 23:15:33 50° ESE visible
01 Jun 10.1 01:08:43 10° WNW 01:13:49 26° W 01:13:49 26° W visible
01 Jun 10.0 20:35:49 10° WNW 20:44:38 41° NNE 20:53:40 10° E visible
01 Jun 9.0 22:41:10 10° NW 22:50:47 82° NE 22:54:41 43° ESE visible
02 Jun 10.0 00:47:00 10° WNW 00:52:56 29° WSW 00:52:56 29° WSW visible
02 Jun 10.0 20:14:11 10° WNW 20:22:57 41° NNE 20:31:56 10° E visible
02 Jun 9.0 22:19:34 10° NW 22:29:09 79° NE 22:33:51 36° ESE visible
03 Jun 9.8 00:25:18 10° WNW 00:32:07 33° WSW 00:32:07 33° WSW visible
03 Jun 9.1 21:57:59 10° NW 22:07:33 76° NNE 22:13:05 30° ESE visible
04 Jun 9.7 00:03:37 10° WNW 00:11:21 36° WSW 00:11:21 36° WSW visible
04 Jun 9.1 21:36:24 10° NW 21:45:55 73° NNE 21:52:22 25° ESE visible
04 Jun 9.6 23:41:57 10° WNW 23:50:34 39° SW 23:50:38 39° SW visible
05 Jun 9.2 21:14:49 10° NW 21:24:18 70° NNE 21:31:41 20° ESE visible
05 Jun 9.5 23:20:17 10° WNW 23:29:01 41° SW 23:29:58 40° SW visible
06 Jun 9.2 20:53:15 10° NW 21:02:40 68° NNE 21:11:03 15° ESE visible
06 Jun 9.5 22:58:37 10° WNW 23:07:27 43° SW 23:09:21 40° SSW visible
